Location: Bretagne
(43.8474°N, 0.4650°W)
Time: 12:38:28
(UTC+00:00)

Envisat - Pass Details

Date: 15 March 2026
Orbit: 761 x 762 km, 98.4° (Epoch: 14 April)

Event Time Altitude Azimuth Distance (km) Brightness Sun altitude
Rises 04:24:19 0° 355° (N) 3,234 6.4 -20.4°
Reaches altitude 10° 04:27:47 10° 330° (NNW) 2,303 5.3 -19.8°
Enters shadow 04:29:05 13° 316° (NW) 2,116 5.0 -19.6°
